Hourly Data Report for March 04, 2004

SHERBROOKE A
QUEBEC

45°26'00.000" N
71°41'00.000" W
241.40 m
7028124
71610
YSC

Download Data

Hourly Data (March 2004)
Hourly Data Report for March 4, 2004
TIME
LST
Temp Definition
°C
Dew Point Definition
°C
Rel Hum Definition
%
Precip. Amount Definition
mm

Wind Dir Definition
10's deg

Wind Spd Definition
km/h
Visibility Definition
km
Stn Press Definition
kPa
Hmdx Definition


Wind Chill Definition


Weather Definition


00:00 -3.7 -9.1 66   19 6 15.0 99.16   -6  
01:00 -3.2 -8.7 66   21 7 15.0 99.12   -6  
02:00 -4.2 -9.5 67   22 4 15.0 99.10   -6  
03:00 -4.0 -8.9 69   20 6 15.0 99.13   -7  
04:00 -4.2 -9.3 68   14 4 15.0 99.04   -6  
05:00 -7.0 -11.4 71     0 12.9 99.03      
06:00 -4.1 -8.7 70   9 6 15.0 99.02   -7  
07:00 -3.4 -8.6 67   9 6 15.0 99.05   -6  
08:00 -2.5 -8.0 66   13 6 19.3 99.06   -5 Snow
09:00 -1.3 -7.2 64   35 4 19.3 99.01   -3 Snow
10:00 -0.6 -6.4 65   29 4 9.7 98.99   -2 Snow
11:00 0.5 -4.9 67   25 7 6.4 98.96     Snow
12:00 1.4 -3.7 69   22 11 4.8 98.95     Snow
13:00 1.9 -3.2 69   25 13 16.1 98.89     Rain, Snow
14:00 1.6 -3.3 70   25 11 16.1 98.87     Rain, Snow
15:00 1.7 -3.3 69   25 9 19.3 98.94     Snow
16:00 1.4 -3.7 69   26 7 19.3 99.00     Rain, Snow
17:00 1.5 -3.7 68   24 9 16.1 99.07     Snow
18:00 1.0 -3.5 72   23 6 11.3 99.17     Snow
19:00 0.7 -3.5 73   23 4 9.7 99.13      
20:00 0.9 -3.4 73   25 6 8.0 99.23      
21:00 1.0 -3.4 72   24 6 8.0 99.28     Snow
22:00 1.0 -3.3 73   23 4 6.4 99.31      
23:00 0.9 -3.4 73   21 4 4.8 99.32      

Notes on Data Quality.

Legend

  • E = Estimated
  • M = Missing
  • NA = Not Available*
  • [empty] = Indicates an unobserved value
Date modified: